Terminal Aerodrome Forecast
Issued by NWS

Home | Current Version | Previous Version | Text Only | Print | Product List | Glossary On
Versions: 1 2 3 4 5 6 7 8 9 10 11 12 13 14 15 16 17 18 19 20 21 22 23 24 25 26 27 28 29 30
000
FTUS45 KLKN 201724
TAFELY
TAF
KELY 201724Z 2018/2118 16007KT P6SM VCSH OVC050
     FM201900 19006KT P6SM VCSH SCT030 OVC050
      TEMPO 2020/2022 -SHRASN OVC020
     FM202200 18008KT 5SM -SHRA OVC019
     FM210200 18009KT P6SM VCSH OVC040
     FM211700 29008KT P6SM VCSH OVC050=

USA.gov is the U.S. government's official web portal to all federal, state and local government web resources and services.